Westerly, RI

3:50 PM EDT on April 30, 2017 (GMT -0400)
Westerly State

Weather History for KWST - October, 2012

Change the Weather History Date:

Monday, October 29, 2012

  Actual Average (KGON) Record (KGON)
Temperature  
Mean Temperature 58 °F -  
Max Temperature 64 °F 59 °F 77 °F (1971)
Min Temperature 53 °F 37 °F 25 °F (1959)
Degree Days  
Heating Degree Days 6    
Growing Degree Days 8 (Base 50)    
Moisture  
Dew Point 56 °F    
Average Humidity 93    
Maximum Humidity 100    
Minimum Humidity 84    
Precipitation  
Precipitation 0.28 in - - ()
Sea Level Pressure  
Sea Level Pressure 29.28 in    
Wind  
Wind Speed 18 mph (NE)    
Max Wind Speed 41 mph    
Max Gust Speed 61 mph    
Visibility 4 miles    
Events Rain    
Averages and records for this station are not official NWS values.
T = Trace of Precipitation, MM = Missing Value Source: NWS Daily Summary

Daily Weather History Graph

Daily Weather History Graph

Search for Another Location

Airport or City:

Trip Planner

Search our weather history database for the weather conditions in past years. The results will help you decide how hot, cold, wet, or windy it might be!

Date:

Astronomy

Oct. 29, 2012 Rise Set
Actual Time 7:15 AM EDT 5:45 PM EDT
Civil Twilight 6:47 AM EDT 6:14 PM EDT
Nautical Twilight 6:14 AM EDT 6:46 PM EDT
Astronomical Twilight 5:42 AM EDT 7:18 PM EDT
Moon 5:35 PM EDT (10/29) 7:03 AM EDT (10/29)
Length of Visible Light 11h 27m
Length of Day
10h 29m
Full, 100% of the Moon is Illuminated
Oct 29
Full
Oct 29
Full
Nov 6
Last Quarter
Nov 13
New
Nov 20
First Quarter

Hourly Weather History & Observations

Time (EDT) Temp. Dew Point Humidity Pressure Visibility Wind Dir Wind Speed Gust Speed Precip Events Conditions
12:30 AM 53.6 °F 51.8 °F 94% 29.67 in 5.0 mi NE 12.7 mph - 0.00 in Rain Light Rain
12:53 AM 53.1 °F 51.1 °F 93% 29.65 in 7.0 mi NE 9.2 mph 20.7 mph 0.00 in Rain Light Rain
1:53 AM 53.1 °F 51.1 °F 93% 29.61 in 7.0 mi NE 13.8 mph 25.3 mph 0.00 in   Overcast
2:51 AM 55.4 °F 51.8 °F 88% 29.57 in 8.0 mi NE 16.1 mph 27.6 mph N/A   Overcast
2:53 AM 55.0 °F 52.0 °F 89% 29.57 in 7.0 mi NE 15.0 mph 27.6 mph N/A   Overcast
3:06 AM 53.6 °F 51.8 °F 94% 29.56 in 6.0 mi NE 16.1 mph 28.8 mph N/A   Overcast
3:53 AM 55.0 °F 52.0 °F 89% 29.53 in 9.0 mi NNE 16.1 mph 31.1 mph N/A   Overcast
4:53 AM 55.0 °F 52.0 °F 89% 29.48 in 8.0 mi NE 17.3 mph 31.1 mph 0.00 in Rain Light Rain
5:53 AM 55.0 °F 53.1 °F 93% 29.46 in 7.0 mi NE 13.8 mph 29.9 mph 0.00 in   Overcast
6:53 AM 55.0 °F 53.1 °F 93% 29.44 in 5.0 mi NE 17.3 mph 28.8 mph 0.00 in Rain Light Rain
7:53 AM 55.9 °F 54.0 °F 93% 29.41 in 5.0 mi NE 19.6 mph 41.4 mph 0.00 in   Overcast
8:34 AM 55.4 °F 55.4 °F 100% 29.38 in 2.5 mi NE 18.4 mph 43.7 mph 0.00 in Rain Light Rain
8:42 AM 57.2 °F 55.4 °F 94% 29.38 in 3.0 mi NE 15.0 mph 29.9 mph 0.00 in Rain Light Rain
8:53 AM 57.0 °F 55.0 °F 93% 29.38 in 3.0 mi NE 20.7 mph 35.7 mph 0.00 in Rain Light Rain
9:06 AM 57.2 °F 55.4 °F 94% 29.37 in 2.5 mi ENE 16.1 mph 34.5 mph 0.00 in Rain Light Rain
9:14 AM 57.2 °F 55.4 °F 94% 29.36 in 5.0 mi NE 18.4 mph 33.4 mph 0.00 in Rain Light Rain
9:48 AM 57.2 °F 55.4 °F 94% 29.33 in 2.0 mi NE 16.1 mph 35.7 mph 0.00 in Rain Light Rain
9:53 AM 57.0 °F 55.9 °F 96% 29.33 in 3.0 mi NE 18.4 mph 35.7 mph 0.00 in Rain Light Rain
10:23 AM 57.2 °F 55.4 °F 94% 29.30 in 2.0 mi NE 18.4 mph 35.7 mph 0.00 in Rain Light Rain
10:37 AM 57.2 °F 55.4 °F 94% 29.28 in 1.5 mi NE 18.4 mph 34.5 mph 0.02 in Rain Light Rain
10:53 AM 57.9 °F 57.0 °F 97% 29.26 in 2.0 mi NE 20.7 mph 36.8 mph 0.03 in Rain Light Rain
11:12 AM 59.0 °F 57.2 °F 94% 29.24 in 4.0 mi NE 21.9 mph 34.5 mph 0.00 in Rain Light Rain
11:24 AM 59.0 °F 57.2 °F 94% 29.22 in 1.8 mi NE 20.7 mph 36.8 mph 0.01 in Rain Light Rain
11:42 AM 59.0 °F 57.2 °F 94% 29.20 in 1.2 mi NE 19.6 mph 35.7 mph 0.04 in Rain Light Rain
11:53 AM 59.0 °F 57.9 °F 96% 29.18 in 1.2 mi NE 21.9 mph 38.0 mph 0.07 in Rain Rain
12:15 PM 59.0 °F 57.2 °F 94% 29.16 in 1.2 mi NE 20.7 mph 33.4 mph 0.06 in Rain Rain
12:17 PM 59.0 °F 57.2 °F 94% 29.16 in 1.2 mi NE 19.6 mph 31.1 mph 0.07 in Rain Rain
12:39 PM 60.8 °F 57.2 °F 88% 29.13 in 2.0 mi NE 18.4 mph 41.4 mph 0.12 in Rain Light Rain
12:53 PM 60.1 °F 57.9 °F 93% 29.11 in 1.2 mi NE 19.6 mph 31.1 mph 0.14 in Rain Light Rain
1:11 PM 60.8 °F 59.0 °F 94% 29.10 in 2.5 mi NE 20.7 mph 35.7 mph 0.02 in Rain Light Rain
1:20 PM 60.8 °F 59.0 °F 94% 29.09 in 1.2 mi NE 28.8 mph 41.4 mph 0.03 in Rain Rain
1:28 PM 60.8 °F 59.0 °F 94% 29.07 in 1.2 mi ENE 25.3 mph 41.4 mph 0.04 in Rain Light Rain
1:39 PM 62.6 °F 60.8 °F 94% 29.06 in 2.5 mi ENE 28.8 mph 39.1 mph 0.04 in Rain Light Rain
1:44 PM 62.6 °F 60.8 °F 94% 29.05 in 3.0 mi ENE 27.6 mph 42.6 mph 0.04 in Rain Light Rain
1:53 PM 63.0 °F 60.1 °F 90% 29.03 in 7.0 mi ENE 31.1 mph 47.2 mph 0.04 in Rain Light Rain
2:53 PM 64.9 °F 60.1 °F 84% 28.96 in 6.0 mi ENE 36.8 mph 58.7 mph 0.00 in Rain Light Rain
3:38 PM 64.4 °F 60.8 °F 88% 28.92 in 1.8 mi ENE 41.4 mph 58.7 mph 0.00 in Rain Light Rain
3:50 PM 64.4 °F 60.8 °F 88% 28.92 in 1.2 mi East 41.4 mph 61.0 mph 0.01 in Rain Rain
4:01 PM 64.4 °F 62.6 °F 94% 28.91 in - North - - N/A   Unknown